{"data":{"norad_id":48679,"epoch":"2026-09-19T14:17:03.188256Z","epoch_age_seconds":119399,"freshness":"FRESH","line1":"1 48679U 21044AT  26262.59517579  .00001240  00000+0  51717-4 0  9992","line2":"2 48679  53.1586 293.0280 0001616  57.6421 302.4737 15.31704671293507","mean_motion":15.31704671,"eccentricity":0.0001616,"inclination_deg":53.1586,"raan_deg":293.028,"arg_perigee_deg":57.6421,"mean_anomaly_deg":302.4737,"bstar":5.1717e-5,"rev_number":29350,"period_min":94.012901263784,"perigee_km":469.61929498078,"apogee_km":471.83284752541,"semimajor_km":6848.8630712531,"source":"CELESTRAK","updated_at":"2026-09-20T09:00:39.242783Z"}}